Location: *
(17.3280°S, 114.7300°W)
Time: 07:13:13
(UTC+00:00)

SL-16 R/B - Pass Details

Date: 05 August 2020
Orbit: 840 x 849 km, 71.0° (Epoch: 20 September)

Event Time Altitude Azimuth Distance (km) Brightness Sun altitude
Exits shadow 13:02:54 11° 299° (WNW) 2,394 4.1 -14.6°
Maximum altitude 13:07:05 24° 249° (WSW) 1,706 3.2 -13.6°
Drops below altitude 10° 13:11:33 10° 197° (SSW) 2,474 4.3 -12.6°
Sets 13:14:30 0° 183° (S) 3,414 5.2 -11.9°
